METOP-B
Last updated on Sun Jun 21 2026 00:02:46 GMT+0000 (Coordinated Universal Time)
1 38771U 12049A 26171.42762080 .00000060 00000+0 47478-4 0 9997
2 38771 98.6503 222.8621 0002032 10.6441 349.4779 14.21440128713725
Next 0 passes for location: London (51.5072 / 0.1276)
No passes found over London.